Orbital Elements at Epoch 2459200.5 (2020-Dec-17.0) TDB
Reference: JPL 26 (heliocentric ecliptic J2000)
Element | Value | Uncertainty (1-sigma) | Units |
e | .1240844197270356 | 3.7209e-08 | |
a | 3.183985256356366 | 1.9796e-08 | au |
q | 2.78890229340195 | 1.2598e-07 | au |
i | .3087360498487721 | 4.3069e-06 | deg |
node | 239.5711118185501 | 0.00071178 | deg |
peri | 235.2142021752369 | 0.00071211 | deg |
M | 312.0080234021761 | 2.0425e-05 | deg |
tp | 2459477.143923481446 (2021-Sep-19.64392348) | 0.00011853 | TDB |
period | 2075.176300570135 5.68 | 1.9353e-05 5.299e-08 | d yr |
n | .1734792363911892 | 1.6179e-09 | deg/d |
Q | 3.579068219310783 | 2.2252e-08 | au |
|
| | Orbit Determination Parameters
Additional Information
|